DW7857 Weather Reports


Display with metric or nautical units.
time (UTC)temp
F
wind
direction
speed
MPH
gust
MPH
rain 1hr
in
rain 24hr
in
rain mn
in
humidity
%
barometer
mb
20260902023603 58 0 0.0 0.0 0.00 1.96 0.00 91 1015.2
20260902022703 58 0 0.0 0.0 0.00 1.96 0.00 91 1015.2
20260902021803 58 183 0.0 1.0 0.00 1.96 0.00 91 1015.3
20260902020903 58 101 1.0 2.0 0.00 1.96 0.00 91 1015.1
20260902020003 58 135 1.0 2.0 0.00 1.96 0.00 91 1015.0
20260902015616 58 135 0.0 2.0 0.00 1.96 0.00 91 1015.1
20260902014503 58 150 0.0 1.0 0.00 1.96 0.00 91 1015.3
20260902013603 58 151 0.0 1.0 0.00 1.96 0.00 91 1015.4
20260902012703 58 178 2.0 2.0 0.00 1.96 0.00 91 1015.5
20260902011803 58 172 1.0 2.0 0.00 1.96 0.00 90 1015.9
20260902010903 58 172 1.0 2.0 0.00 1.96 0.00 89 1015.6
20260902010003 58 189 1.0 2.0 0.00 1.96 0.00 89 1015.4
20260902005618 58 154 1.0 2.0 0.00 1.96 0.00 89 1015.3
20260902004503 59 123 1.0 2.0 0.00 1.96 0.00 88 1015.4
20260902003603 59 112 1.0 2.0 0.00 1.96 0.00 88 1015.6
20260902002703 59 93 1.0 2.0 0.00 1.96 0.00 87 1015.8
20260902001803 59 131 1.0 2.0 0.00 1.96 0.00 87 1016.0
20260902000903 59 154 1.0 2.0 0.00 1.96 0.00 86 1015.9
20260902000003 59 126 1.0 2.0 0.00 1.96 0.00 86 1015.7
20260901235403 59 117 1.0 2.0 0.00 1.96 0.00 86 1016.2
20260901234503 59 96 0.0 1.0 0.00 1.96 0.00 85 1016.1
20260901233603 59 182 0.0 1.0 0.00 1.96 0.00 85 1016.0
20260901232703 59 178 1.0 2.0 0.00 1.96 0.00 85 1016.3
20260901231803 59 167 1.0 2.0 0.00 1.96 0.00 84 1016.1
20260901231116 59 107 0.0 1.0 0.00 1.96 0.00 83 1015.9
20260901230004 59 165 1.0 2.0 0.00 1.96 0.00 83 1016.0
20260901225403 60 161 1.0 2.0 0.00 1.96 0.00 83 1016.0
20260901224717 60 140 0.0 1.0 0.00 1.96 0.00 82 1016.1
20260901223818 60 180 1.0 2.0 0.00 1.96 0.00 81 1016.1
20260901222703 60 123 0.0 2.0 0.00 1.96 0.00 81 1016.0
20260901221803 60 170 1.0 2.0 0.00 1.96 0.00 81 1015.7
20260901220903 60 120 1.0 2.0 0.00 1.96 0.00 80 1015.7
20260901220003 60 90 1.0 2.0 0.00 1.96 0.00 80 1015.8
20260901215403 61 85 0.0 1.0 0.00 1.96 0.00 80 1016.1
20260901214503 61 90 0.0 1.0 0.00 1.96 0.00 79 1016.1
20260901213603 61 135 0.0 1.0 0.00 1.96 0.00 78 1015.9
20260901212703 61 133 0.0 1.0 0.00 1.96 0.00 78 1016.0
20260901211803 61 121 2.0 4.0 0.00 1.96 0.00 77 1015.9
20260901210903 62 295 2.0 3.0 0.00 1.96 0.00 77 1016.1
20260901210003 62 195 1.0 2.0 0.00 1.96 0.00 77 1016.2
20260901205616 62 176 1.0 3.0 0.00 1.96 0.00 77 1016.2
20260901204503 62 219 2.0 2.0 0.00 1.96 0.00 76 1015.8
20260901203817 62 195 2.0 4.0 0.00 1.96 0.00 76 1016.1
20260901202916 62 205 2.0 3.0 0.00 1.96 0.00 76 1016.2
20260901201803 62 168 3.0 4.0 0.00 1.96 0.00 77 1016.0
20260901200903 62 185 2.0 3.0 0.00 1.96 0.00 76 1016.2
20260901200003 62 180 2.0 4.0 0.00 1.96 0.00 76 1015.9
20260901195403 63 169 2.0 4.0 0.00 1.96 0.00 76 1016.0
20260901194503 63 255 3.0 6.0 0.00 1.96 0.00 76 1016.1
20260901193817 63 154 2.0 6.0 0.00 1.96 0.00 76 1015.9
20260901192918 63 206 2.0 4.0 0.00 1.96 0.00 75 1016.1
20260901191803 63 179 2.0 3.0 0.00 1.96 0.00 74 1015.8
20260901190903 63 191 2.0 4.0 0.00 1.96 0.00 74 1016.1
20260901190218 63 192 2.0 4.0 0.00 1.96 0.00 73 1015.9
20260901185403 63 172 3.0 4.0 0.00 1.96 0.00 73 1015.9
20260901184717 64 161 3.0 4.0 0.00 1.96 0.00 70 1015.7
20260901183603 64 232 3.0 5.0 0.00 1.96 0.00 67 1015.7
20260901182918 64 218 3.0 5.0 0.00 1.96 0.00 66 1015.9
20260901181803 65 148 2.0 4.0 0.00 1.96 0.00 65 1016.0
20260901180903 65 142 3.0 4.0 0.00 1.96 0.00 64 1015.7
20260901180003 65 106 2.0 4.0 0.00 1.96 0.00 64 1015.9
20260901175403 65 156 3.0 4.0 0.00 1.96 0.00 63 1015.9
20260901174503 65 319 4.0 4.0 0.00 1.96 0.00 63 1015.8
20260901173603 65 275 4.0 7.0 0.00 1.96 0.00 63 1015.8
20260901172703 65 241 4.0 5.0 0.00 1.96 0.00 63 1016.0
20260901171803 65 186 4.0 6.0 0.00 1.96 0.00 62 1015.8
20260901171118 65 203 5.0 6.0 0.00 1.96 0.00 62 1015.9
20260901170003 66 311 5.0 8.0 0.00 1.96 0.00 62 1015.7
20260901165403 67 149 6.0 8.0 0.00 1.96 0.00 61 1015.5
20260901164716 67 343 6.0 8.0 0.00 1.96 0.00 60 1015.5
20260901163603 67 149 2.0 4.0 0.00 1.96 0.00 65 1015.4
20260901162703 67 169 4.0 7.0 0.00 1.96 0.00 69 1015.6
20260901161803 67 176 5.0 8.0 0.00 1.96 0.00 69 1015.7
20260901160903 67 194 4.0 6.0 0.00 1.96 0.00 69 1015.6
20260901160003 67 173 4.0 4.0 0.00 1.96 0.00 70 1015.7
20260901155403 66 186 4.0 8.0 0.00 1.96 0.00 70 1016.0
20260901154503 66 193 4.0 8.0 0.00 1.96 0.00 70 1016.0
20260901153603 66 166 6.0 10.0 0.00 1.96 0.00 68 1015.9
20260901152917 67 265 5.0 7.0 0.00 1.96 0.00 66 1016.0
20260901151803 67 196 7.0 11.0 0.00 1.96 0.00 62 1015.8
20260901150903 68 183 6.0 9.0 0.00 1.96 0.00 61 1015.7
20260901150217 69 191 5.0 7.0 0.00 1.96 0.00 60 1015.9
20260901145403 68 161 5.0 7.0 0.00 1.96 0.00 62 1015.6
20260901144503 68 173 5.0 9.0 0.00 1.96 0.00 63 1015.8
20260901143603 68 181 7.0 11.0 0.00 1.96 0.00 63 1016.0
20260901142703 68 183 7.0 13.0 0.00 1.96 0.00 62 1016.1
20260901141803 68 187 7.0 12.0 0.00 1.96 0.00 63 1016.1
20260901141117 68 202 7.0 8.0 0.00 1.96 0.00 62 1016.2
20260901140003 67 193 5.0 8.0 0.00 1.96 0.00 63 1015.9
20260901135403 67 199 6.0 9.0 0.00 1.96 0.00 64 1016.2
20260901134503 66 217 5.0 9.0 0.00 1.96 0.00 62 1016.5
20260901133603 66 182 6.0 11.0 0.00 1.96 0.00 62 1016.0
20260901132703 67 221 7.0 11.0 0.00 1.96 0.00 61 1016.3
20260901131803 69 163 5.0 7.0 0.00 1.96 0.00 59 1015.9
20260901130903 70 189 7.0 11.0 0.00 1.96 0.00 60 1016.1
20260901130003 68 182 7.0 11.0 0.00 1.96 0.00 61 1015.9
20260901125403 68 191 6.0 10.0 0.00 1.96 0.00 61 1016.0
20260901124504 68 181 6.0 9.0 0.00 1.96 0.00 60 1016.2
20260901123603 68 197 6.0 10.0 0.00 1.96 0.00 61 1016.4
20260901122703 68 186 5.0 10.0 0.00 1.96 0.00 60 1016.3
20260901121803 69 189 5.0 8.0 0.00 1.96 0.00 55 1016.1
20260901120903 71 23 3.0 4.0 0.00 1.96 0.00 52 1016.2
20260901120003 69 306 4.0 5.0 0.98 1.96 0.00 52 1016.3
20260901115403 70 226 4.0 6.0 1.96 1.96 0.00 51 1016.2
20260901114503 72 249 5.0 7.0 1.96 1.96 0.00 48 1016.3
20260901113603 72 246 4.0 5.0 1.96 1.96 0.00 48 1016.2
20260901112703 72 218 5.0 7.0 1.96 1.96 0.00 50 1016.3
20260901112016 71 305 5.0 7.0 1.96 1.96 0.00 50 1016.3
20260901110903 71 329 5.0 7.0 1.96 1.96 0.00 51 1016.3
20260901110217 70 331 3.0 7.0 1.96 1.96 0.00 52 1016.3
20260901105403 70 327 6.0 9.0 0.00 0.00 0.00 53 1016.4
20260901104503 70 254 4.0 6.0 0.00 0.00 0.00 56 1016.6
20260901103603 69 103 5.0 7.0 0.00 0.00 0.00 56 1016.4
20260901102703 69 215 4.0 7.0 0.00 0.00 0.00 57 1016.7
20260901101803 70 223 4.0 9.0 0.00 0.00 0.00 56 1016.6
20260901100903 71 145 4.0 10.0 0.00 0.00 0.00 60 1016.6
20260901100003 69 285 3.0 4.0 0.00 0.00 0.00 61 1016.7
20260901095403 69 304 4.0 7.0 0.00 0.00 0.00 62 1016.7
20260901094503 67 204 5.0 8.0 0.00 0.00 0.00 63 1016.8
20260901093603 67 173 4.0 7.0 0.00 0.00 0.00 66 1017.1
20260901092703 66 158 4.0 4.0 0.00 0.00 0.00 68 1016.7
20260901091803 64 163 5.0 8.0 0.00 0.00 0.00 71 1016.9
20260901090903 63 174 5.0 6.0 0.00 0.00 0.00 75 1016.8
20260901090003 62 145 3.0 5.0 0.00 0.00 0.00 79 1017.0
20260901085403 62 96 3.0 4.0 0.00 0.00 0.00 80 1017.0
20260901084503 61 95 2.0 4.0 0.00 0.00 0.00 81 1016.8
20260901083603 60 96 3.0 3.0 0.00 0.00 0.00 81 1016.9
20260901082703 60 105 2.0 3.0 0.00 0.00 0.00 81 1017.0
20260901082017 60 128 2.0 4.0 0.00 0.00 0.00 82 1016.8
20260901080903 59 109 1.0 2.0 0.00 0.00 0.00 84 1016.9
20260901080003 58 188 3.0 4.0 0.00 0.00 0.00 83 1016.4
20260901075403 58 178 3.0 5.0 0.00 0.00 0.00 84 1016.8
20260901074503 57 175 1.0 2.0 0.00 0.00 0.00 85 1016.4
20260901073603 57 118 2.0 3.0 0.00 0.00 0.00 86 1016.6
20260901072703 56 94 2.0 3.0 0.00 0.00 0.00 87 1016.7
20260901071803 56 125 2.0 3.0 0.00 0.00 0.00 88 1016.5
20260901070903 56 128 2.0 3.0 0.00 0.00 0.00 89 1016.4
20260901070003 55 106 2.0 3.0 0.00 0.00 0.00 90 1016.4
20260901065403 55 89 2.0 3.0 0.00 0.00 0.00 90 1016.3
20260901064503 54 143 2.0 3.0 0.00 0.00 0.00 93 1016.4
20260901063818 54 166 3.0 4.0 0.00 0.00 0.00 94 1016.5
20260901062703 54 168 3.0 4.0 0.00 0.00 0.00 95 1016.3
20260901062017 54 169 2.0 4.0 0.00 0.00 0.00 95 1016.1
20260901061118 53 160 0.0 1.0 0.00 0.00 0.00 95 1016.4
20260901060004 52 360 1.0 3.0 0.00 0.00 0.00 94 1015.9